Regional Weather Roundup
Issued by NWS Portland, ME

Home | Current Version | Previous Version | Text Only | Print | Product List | Glossary On
Versions: 1 2 3 4 5 6 7 8 9 10 11 12 13 14 15 16 17 18 19 20 21 22 23 24 25 26 27 28 29 30 31 32 33 34 35 36 37 38 39 40 41 42 43 44 45 46 47 48 49 50
000
ASUS41 KGYX 040510
RWRGYX
WEATHER ROUNDUP FOR MAINE AND NEW HAMPSHIRE
NATIONAL WEATHER SERVICE GRAY ME
100 AM EDT FRI SEP 04 2015

MEZ002-005-006-010-012-015-018-020-021-024-026-027-029-040600-
MAINE

CITY           SKY/WX    TMP DP  RH WIND       PRES   REMARKS
PORTLAND       PTCLDY    69  61  75 NE14      29.99R
SANFORD        MOCLDY    66  63  88 N7        29.98R
BAR HARBOR     CLEAR     61  54  77 N6        30.03R
WISCASSET      CLOUDY    69  54  58 VRB3      30.01R
ROCKLAND       CLEAR     66  52  59 NE12G18   29.99R
FRYEBURG       CLEAR     68  60  75 NE5       30.03R
LEWISTONAUBURN PTCLDY    66 N/A N/A NE9       30.02R
AUGUSTA        CLEAR     64  50  60 NE13      30.04R
WATERVILLE     CLEAR     63  46  55 NE12      30.02R
BANGOR         CLEAR     60  48  64 N8        30.06R
GREENVILLE       N/A     54  46  74 CALM      30.07R
MILLINOCKET    CLEAR     55  48  77 CALM      30.09R
HOULTON        CLEAR     46  44  93 CALM      30.07R
PRESQUE ISLE   CLEAR     46  43  87 CALM      30.08R
FRENCHVILLE    CLEAR     48  44  86 NW7       30.09R
CARIBOU        CLEAR     51  44  77 NW5       30.08R
$$

NHZ002-005-008-009-011-012-014-040600-
NEW HAMPSHIRE

CITY           SKY/WX    TMP DP  RH WIND       PRES   REMARKS
PORTSMOUTH     MOCLDY    71  68  90 N3        29.95R
ROCHESTER      CLEAR     69  66  90 NW5       29.97R
NASHUA         MOCLDY    73  69  87 W3        29.96S
MANCHESTER     MOCLDY    74  66  76 N3        29.94S
CONCORD        MOCLDY    68  67  96 CALM      29.97R FOG
LACONIA        MOCLDY    66  64  94 CALM      29.99R
PLYMOUTH       FAIR      64  61  90 CALM      30.00R
BERLIN         CLOUDY    51  49  92 CALM      30.07R FOG
WHITEFIELD     CLEAR     53  51  93 CALM      30.05R FOG
JAFFREY        MOCLDY    70  66  87 CALM      30.00R
KEENE          CLEAR     66  63  88 CALM      29.98S
LEBANON        CLEAR     60  57  89 S3        30.01R
MT WASHINGTON  PTCLDY    50  41  71 SE6         N/A
$$

VTZ005-007-008-040600-
VERMONT

CITY           SKY/WX    TMP DP  RH WIND       PRES   REMARKS
ST JOHNSBURY     N/A     57  53  86 MISG      30.03R
MONTPELIER     CLEAR     55  52  89 CALM      30.09R
BURLINGTON     CLEAR     59  55  87 CALM      30.03R
$$

MAZ007-012-024-CTZ003-RIZ002-NYZ038-NYZ072-040600-
SOUTHERN NEW ENGLAND AND NY

CITY           SKY/WX    TMP DP  RH WIND       PRES   REMARKS
BOSTON         LGT RAIN  73  68  84 NE3       29.95R
WORCESTER      PTCLDY    72  64  76 NE3       29.98R
NANTUCKET        N/A    N/A N/A N/A MISG        N/A
PROVIDENCE     CLOUDY    75  69  81 E5        29.92S
HARTFORD       PTCLDY    72  67  84 N8        29.93R
ALBANY         PTCLDY    72  58  61 N8        29.97R
NEW YORK CITY  MOCLDY    81  66  60 N3        29.89R
$$

ANZ081-ANZ082-ANZ150-NHZ014-MEZ023>029-040600-
COASTAL MARINE OBSERVATIONS

STATION/POSITION TIME  TEMP    WIND        PRES    WAVE
                       AIR SEA DIR/SP/G            HT/PER
                 (UTC) (F)     (DEG/KT/KT) (MB)    (FT/S)
MOUNT DESERT ROC 0500   60      10/ 16/ 17 1015.9R
MATINICUS ROCK   0400           60/ 24/ 26 1014.2R
ISLE OF SHOALS   0400   71      10/  2/  3 1013.6R
JEFFREYS LEDGE   0403      69                N/A     1/13
CASHES LEDGE BUO 0450   69                 1014.0R   1/ 7
GEORGES BANK BUO 0450   70 69  230/  2/  2 1012.6R   1/ 8
$$

.............KEY..............
   WCI - WIND CHILL
   TC  - TEMPERATURE IN CELSIUS
   VSB - VISIBILITY IN MILES
   HX  - HEAT INDEX
   FAIR- INDICATES FEW OR NO CLOUDS BELOW 12,000 FT, WITH NO
         SIGNIFICANT WEATHER AND/OR OBSTRUCTIONS TO VISIBILITY.





USA.gov is the U.S. government's official web portal to all federal, state and local government web resources and services.